Weather History for Baudette, MN

Change the Weather History Date:

Wednesday, August 14, 2013

  Actual Average Record
Temperature  
Mean Temperature 60 °F -  
Max Temperature 75 °F 77 °F 95 °F (1984)
Min Temperature 48 °F 54 °F 37 °F (1964)
Degree Days  
Heating Degree Days 4    
Growing Degree Days 10 (Base 50)    
Moisture  
Dew Point 49 °F    
Average Humidity 69    
Maximum Humidity 90    
Minimum Humidity 41    
Precipitation  
Precipitation 0.00 in - - ()
Sea Level Pressure  
Sea Level Pressure 30.16 in    
Wind  
Wind Speed 2 mph (NNW)    
Max Wind Speed 7 mph    
Max Gust Speed -    
Visibility 10 miles    
Events      
Averages and records for this station are not official NWS values.
T = Trace of Precipitation, MM = Missing Value Source: NWS Daily Summary

Daily Weather History Graph

Daily Weather History Graph

Search for Another Location

Airport:

Trip Planner

Search our weather history database for the weather conditions in past years. The results will help you decide how hot, cold, wet, or windy it might be!

Date:

Astronomy

Aug. 14, 2013 Rise Set
Actual Time 6:10 AM CDT 8:34 PM CDT
Civil Twilight 5:35 AM CDT 9:09 PM CDT
Nautical Twilight 4:51 AM CDT 9:53 PM CDT
Astronomical Twilight 4:00 AM CDT 10:43 PM CDT
Moon 2:54 PM CDT (8/14) No Moon Set
Length of Visible Light 15h 34m
Length of Day
14h 24m
First Quarter, 53% of the Moon is Illuminated
Aug 14
First Quarter
Aug 20
Full
Aug 28
Last Quarter
Sep 5
New
Sep 12
First Quarter

Hourly Weather History & Observations

Time (CDT) Temp. Dew Point Humidity Pressure Visibility Wind Dir Wind Speed Gust Speed Precip Events Conditions
12:53 AM 54.0 °F 48.0 °F 80% 30.22 in 10.0 mi Calm Calm - N/A   Scattered Clouds
1:53 AM 52.0 °F 46.9 °F 83% 30.22 in 10.0 mi SW 3.5 mph - N/A   Mostly Cloudy
2:53 AM 53.1 °F 46.0 °F 77% 30.21 in 10.0 mi Calm Calm - N/A   Clear
3:53 AM 50.0 °F 46.0 °F 86% 30.21 in 10.0 mi Calm Calm - N/A   Clear
4:53 AM 48.9 °F 45.0 °F 86% 30.21 in 10.0 mi Calm Calm - N/A   Clear
5:53 AM 48.0 °F 45.0 °F 89% 30.22 in 10.0 mi Calm Calm - N/A   Clear
6:53 AM 48.0 °F 45.0 °F 89% 30.21 in 10.0 mi Calm Calm - N/A   Clear
7:53 AM 52.0 °F 48.0 °F 86% 30.20 in 10.0 mi Calm Calm - N/A   Scattered Clouds
8:53 AM 57.9 °F 50.0 °F 75% 30.20 in 10.0 mi Calm Calm - N/A   Clear
9:53 AM 62.1 °F 51.1 °F 67% 30.20 in 10.0 mi NNE 3.5 mph - N/A   Clear
10:53 AM 66.9 °F 52.0 °F 59% 30.19 in 10.0 mi North 5.8 mph - N/A   Clear
11:53 AM 68.0 °F 51.1 °F 55% 30.18 in 10.0 mi Variable 3.5 mph - N/A   Clear
12:53 PM 71.1 °F 50.0 °F 47% 30.16 in - North 3.5 mph - N/A   Unknown
1:53 PM 72.0 °F 48.9 °F 44% 30.15 in 10.0 mi North 4.6 mph - N/A   Clear
2:53 PM 72.0 °F 48.0 °F 43% 30.13 in 10.0 mi Variable 5.8 mph - N/A   Clear
3:53 PM 73.9 °F 48.9 °F 41% 30.12 in 10.0 mi Variable 6.9 mph - N/A   Clear
4:53 PM 73.9 °F 50.0 °F 43% 30.11 in 10.0 mi North 6.9 mph - N/A   Clear
5:53 PM 73.0 °F 51.1 °F 46% 30.10 in 10.0 mi NNW 4.6 mph - N/A   Clear
6:53 PM 72.0 °F 51.1 °F 48% 30.10 in 10.0 mi North 3.5 mph - N/A   Clear
7:53 PM 66.0 °F 54.0 °F 65% 30.09 in 10.0 mi Calm Calm - N/A   Clear
8:53 PM 61.0 °F 53.1 °F 75% 30.09 in 10.0 mi Calm Calm - N/A   Clear
9:53 PM 57.0 °F 53.1 °F 87% 30.09 in 10.0 mi Calm Calm - N/A   Clear
10:53 PM 55.9 °F 52.0 °F 87% 30.10 in 10.0 mi SW 3.5 mph - N/A   Clear
11:53 PM 54.0 °F 51.1 °F 90% 30.10 in 10.0 mi SSW 3.5 mph - N/A   Clear